Time,TemperatureF,DewpointF,PressureIn,WindDirection,WindDirectionDegrees,WindSpeedMPH,WindSpeedGustMPH,Humidity,HourlyPrecipIn,Conditions,Clouds,dailyrainin,SoftwareType,DateUTC
2013-02-11 00:01:00,50.0,47.0,29.69,West,272,1.0,5.0,89,0.00,,,0.10,,2013-02-11 05:01:00,
2013-02-11 00:12:00,50.0,47.0,29.69,South,184,2.0,9.0,89,0.00,,,0.10,,2013-02-11 05:12:00,
2013-02-11 00:22:00,50.0,47.0,29.69,South,184,2.0,9.0,89,0.00,,,0.10,,2013-02-11 05:22:00,
2013-02-11 00:32:00,50.0,47.0,29.69,South,184,2.0,9.0,89,0.00,,,0.10,,2013-02-11 05:32:00,
2013-02-11 00:42:00,50.0,47.0,29.69,South,184,2.0,9.0,89,0.00,,,0.10,,2013-02-11 05:42:00,
2013-02-11 00:52:00,50.0,47.0,29.69,WNW,294,1.0,7.0,89,0.00,,,0.10,,2013-02-11 05:52:00,
2013-02-11 01:02:00,50.0,47.0,29.68,NNW,346,1.0,5.0,89,0.00,,,0.10,,2013-02-11 06:02:00,
2013-02-11 01:11:00,50.0,47.0,29.68,NNW,346,1.0,5.0,89,0.00,,,0.10,,2013-02-11 06:11:00,
2013-02-11 01:21:00,50.0,47.0,29.69,WSW,253,2.0,6.0,89,0.00,,,0.10,,2013-02-11 06:21:00,
2013-02-11 01:32:00,50.0,47.0,29.69,West,262,2.0,6.0,89,0.00,,,0.10,,2013-02-11 06:32:00,
2013-02-11 01:42:00,50.0,47.0,29.68,West,279,2.0,6.0,88,0.00,,,0.10,,2013-02-11 06:42:00,
2013-02-11 01:52:00,50.0,47.0,29.68,West,279,2.0,6.0,88,0.00,,,0.10,,2013-02-11 06:52:00,
2013-02-11 02:01:00,50.0,47.0,29.68,North,355,2.0,5.0,88,0.00,,,0.10,,2013-02-11 07:01:00,
2013-02-11 02:11:00,51.0,47.0,29.68,West,281,4.0,8.0,87,0.00,,,0.10,,2013-02-11 07:11:00,
2013-02-11 02:21:00,51.0,47.0,29.68,West,281,4.0,8.0,87,0.00,,,0.10,,2013-02-11 07:21:00,
2013-02-11 02:32:00,51.0,47.0,29.68,SW,233,4.0,9.0,86,0.00,,,0.10,,2013-02-11 07:32:00,
2013-02-11 02:41:00,51.0,47.0,29.68,SSW,209,5.0,10.0,85,0.00,,,0.10,,2013-02-11 07:41:00,
2013-02-11 02:52:00,51.0,47.0,29.68,SSW,209,5.0,10.0,85,0.00,,,0.10,,2013-02-11 07:52:00,
2013-02-11 03:01:00,50.0,45.0,29.68,WSW,251,4.0,10.0,84,0.00,,,0.10,,2013-02-11 08:01:00,
2013-02-11 03:11:00,50.0,45.0,29.68,WSW,251,4.0,10.0,84,0.00,,,0.10,,2013-02-11 08:11:00,
2013-02-11 03:21:00,50.0,45.0,29.68,WSW,246,5.0,12.0,82,0.00,,,0.10,,2013-02-11 08:21:00,
2013-02-11 03:32:00,50.0,44.0,29.68,WSW,249,6.0,14.0,80,0.00,,,0.10,,2013-02-11 08:32:00,
2013-02-11 03:42:00,50.0,43.0,29.68,ESE,107,7.0,13.0,78,0.00,,,0.10,,2013-02-11 08:42:00,
2013-02-11 03:52:00,50.0,43.0,29.68,ESE,107,7.0,13.0,78,0.00,,,0.10,,2013-02-11 08:52:00,
2013-02-11 04:01:00,50.0,42.0,29.68,South,188,5.0,13.0,75,0.00,,,0.10,,2013-02-11 09:01:00,
2013-02-11 04:12:00,50.0,42.0,29.68,South,188,5.0,13.0,75,0.00,,,0.10,,2013-02-11 09:12:00,
2013-02-11 04:21:00,50.0,41.0,29.68,SW,234,8.0,15.0,71,0.00,,,0.10,,2013-02-11 09:21:00,
2013-02-11 04:32:00,49.0,38.0,29.68,WSW,241,9.0,17.0,65,0.00,,,0.10,,2013-02-11 09:32:00,
2013-02-11 04:41:00,49.0,38.0,29.68,WSW,241,9.0,17.0,65,0.00,,,0.10,,2013-02-11 09:41:00,
2013-02-11 04:51:00,49.0,35.0,29.68,WNW,282,10.0,21.0,58,0.00,,,0.10,,2013-02-11 09:51:00,
2013-02-11 05:01:00,48.0,34.0,29.69,West,274,8.0,24.0,57,0.00,,,0.10,,2013-02-11 10:01:00,
2013-02-11 05:11:00,48.0,34.0,29.69,West,274,8.0,24.0,57,0.00,,,0.10,,2013-02-11 10:11:00,
2013-02-11 05:21:00,47.0,33.0,29.70,WSW,242,7.0,17.0,58,0.00,,,0.10,,2013-02-11 10:21:00,
2013-02-11 05:31:00,44.0,34.0,29.72,WSW,239,5.0,18.0,67,0.00,,,0.09,,2013-02-11 10:31:00,
2013-02-11 05:42:00,44.0,34.0,29.72,WSW,239,5.0,18.0,67,0.00,,,0.09,,2013-02-11 10:42:00,
2013-02-11 05:51:00,44.0,34.0,29.72,WSW,239,5.0,18.0,67,0.00,,,0.09,,2013-02-11 10:51:00,
2013-02-11 06:01:00,41.0,31.0,29.74,SW,225,8.0,20.0,66,0.00,,,0.09,,2013-02-11 11:01:00,
2013-02-11 06:11:00,41.0,31.0,29.74,SW,225,8.0,20.0,66,0.00,,,0.09,,2013-02-11 11:11:00,
2013-02-11 06:22:00,40.0,30.0,29.75,WSW,255,9.0,17.0,67,0.00,,,0.09,,2013-02-11 11:22:00,
2013-02-11 06:32:00,40.0,30.0,29.75,SW,221,7.0,16.0,68,0.00,,,0.09,,2013-02-11 11:32:00,
2013-02-11 06:42:00,40.0,30.0,29.75,SW,221,7.0,16.0,68,0.00,,,0.09,,2013-02-11 11:42:00,
2013-02-11 06:52:00,40.0,31.0,29.76,SW,228,7.0,14.0,69,0.00,,,0.09,,2013-02-11 11:52:00,
2013-02-11 07:03:00,40.0,31.0,29.76,WSW,257,8.0,14.0,69,0.00,,,0.09,,2013-02-11 12:03:00,
2013-02-11 07:12:00,40.0,31.0,29.76,WSW,257,8.0,14.0,69,0.00,,,0.09,,2013-02-11 12:12:00,
2013-02-11 07:22:00,40.0,31.0,29.77,WSW,242,4.0,11.0,70,0.00,,,0.09,,2013-02-11 12:22:00,
2013-02-11 07:32:00,39.0,30.0,29.77,WSW,246,8.0,17.0,70,0.00,,,0.09,,2013-02-11 12:32:00,
2013-02-11 07:42:00,39.0,30.0,29.78,South,190,6.0,22.0,69,0.00,,,0.09,,2013-02-11 12:42:00,
2013-02-11 07:52:00,39.0,30.0,29.78,South,190,6.0,22.0,69,0.00,,,0.09,,2013-02-11 12:52:00,
2013-02-11 08:02:00,38.0,29.0,29.79,WNW,303,7.0,16.0,71,0.00,,,0.09,,2013-02-11 13:02:00,
2013-02-11 08:12:00,37.0,27.0,29.81,WNW,286,8.0,17.0,66,0.00,,,0.09,,2013-02-11 13:12:00,
2013-02-11 08:22:00,37.0,27.0,29.81,WNW,286,8.0,17.0,66,0.00,,,0.09,,2013-02-11 13:22:00,
2013-02-11 08:32:00,37.0,26.0,29.80,SSW,200,7.0,20.0,64,0.00,,,0.09,,2013-02-11 13:32:00,
2013-02-11 08:42:00,37.0,26.0,29.80,SSW,200,7.0,20.0,64,0.00,,,0.09,,2013-02-11 13:42:00,
2013-02-11 08:52:00,37.0,26.0,29.81,SSW,205,7.0,24.0,64,0.00,,,0.09,,2013-02-11 13:52:00,
2013-02-11 09:02:00,37.0,26.0,29.80,SW,219,9.0,21.0,65,0.00,,,0.09,,2013-02-11 14:02:00,
2013-02-11 09:11:00,37.0,26.0,29.80,SW,219,9.0,21.0,65,0.00,,,0.09,,2013-02-11 14:11:00,
2013-02-11 09:22:00,37.0,26.0,29.81,WSW,251,8.0,20.0,65,0.00,,,0.09,,2013-02-11 14:22:00,
2013-02-11 09:33:00,37.0,27.0,29.82,WSW,258,9.0,17.0,66,0.00,,,0.09,,2013-02-11 14:33:00,
2013-02-11 09:42:00,37.0,27.0,29.82,WSW,258,9.0,17.0,66,0.00,,,0.09,,2013-02-11 14:42:00,
2013-02-11 09:52:00,37.0,27.0,29.83,SSW,206,4.0,15.0,67,0.00,,,0.09,,2013-02-11 14:52:00,
2013-02-11 10:02:00,37.0,27.0,29.83,West,261,9.0,20.0,66,0.00,,,0.09,,2013-02-11 15:02:00,
2013-02-11 10:11:00,37.0,27.0,29.83,West,261,9.0,20.0,66,0.00,,,0.09,,2013-02-11 15:11:00,
2013-02-11 10:22:00,36.0,25.0,29.85,West,281,9.0,20.0,65,0.00,,,0.09,,2013-02-11 15:22:00,
2013-02-11 10:32:00,36.0,25.0,29.85,West,281,9.0,20.0,65,0.00,,,0.09,,2013-02-11 15:32:00,
2013-02-11 10:42:00,36.0,25.0,29.85,SW,225,11.0,21.0,64,0.00,,,0.09,,2013-02-11 15:42:00,
2013-02-11 10:52:00,36.0,25.0,29.85,SW,225,11.0,21.0,64,0.00,,,0.09,,2013-02-11 15:52:00,
2013-02-11 11:02:00,36.0,25.0,29.86,West,264,6.0,18.0,65,0.00,,,0.09,,2013-02-11 16:02:00,
2013-02-11 11:12:00,36.0,25.0,29.86,West,264,6.0,18.0,65,0.00,,,0.09,,2013-02-11 16:12:00,
2013-02-11 11:22:00,36.0,25.0,29.87,West,270,8.0,16.0,64,0.00,,,0.09,,2013-02-11 16:22:00,
2013-02-11 11:32:00,35.0,24.0,29.88,WNW,289,8.0,23.0,65,0.00,,,0.09,,2013-02-11 16:32:00,
2013-02-11 11:42:00,35.0,25.0,29.88,SW,235,7.0,17.0,67,0.00,,,0.09,,2013-02-11 16:42:00,
2013-02-11 11:52:00,35.0,25.0,29.88,SW,235,7.0,17.0,67,0.00,,,0.09,,2013-02-11 16:52:00,
2013-02-11 12:02:00,36.0,26.0,29.89,West,280,10.0,23.0,67,0.00,,,0.09,,2013-02-11 17:02:00,
2013-02-11 12:11:00,36.0,26.0,29.89,West,280,10.0,23.0,67,0.00,,,0.09,,2013-02-11 17:11:00,
2013-02-11 12:22:00,36.0,26.0,29.89,West,273,10.0,21.0,66,0.00,,,0.09,,2013-02-11 17:22:00,
2013-02-11 12:32:00,36.0,26.0,29.89,West,279,11.0,19.0,66,0.00,,,0.09,,2013-02-11 17:32:00,
2013-02-11 12:42:00,36.0,26.0,29.89,West,279,11.0,19.0,66,0.00,,,0.09,,2013-02-11 17:42:00,
2013-02-11 12:52:00,36.0,26.0,29.90,West,268,10.0,22.0,66,0.00,,,0.09,,2013-02-11 17:52:00,
2013-02-11 13:02:00,36.0,26.0,29.90,WSW,253,7.0,16.0,67,0.00,,,0.09,,2013-02-11 18:02:00,
2013-02-11 13:11:00,36.0,26.0,29.90,WSW,253,7.0,16.0,67,0.00,,,0.09,,2013-02-11 18:11:00,
2013-02-11 13:21:00,36.0,27.0,29.90,WSW,246,4.0,18.0,70,0.00,,,0.09,,2013-02-11 18:21:00,
2013-02-11 13:32:00,36.0,26.0,29.90,WSW,252,9.0,20.0,66,0.00,,,0.09,,2013-02-11 18:32:00,
2013-02-11 13:42:00,36.0,26.0,29.90,WSW,252,9.0,20.0,66,0.00,,,0.09,,2013-02-11 18:42:00,
2013-02-11 13:52:00,36.0,26.0,29.90,West,266,5.0,19.0,66,0.00,,,0.09,,2013-02-11 18:52:00,
2013-02-11 14:02:00,36.0,26.0,29.90,SW,227,6.0,17.0,68,0.00,,,0.09,,2013-02-11 19:02:00,
2013-02-11 14:11:00,36.0,26.0,29.90,SW,227,6.0,17.0,68,0.00,,,0.09,,2013-02-11 19:11:00,
2013-02-11 14:21:00,36.0,26.0,29.91,WSW,246,6.0,16.0,68,0.00,,,0.09,,2013-02-11 19:21:00,
2013-02-11 14:32:00,36.0,26.0,29.91,SW,219,8.0,17.0,67,0.00,,,0.08,,2013-02-11 19:32:00,
2013-02-11 14:42:00,36.0,26.0,29.91,SW,219,8.0,17.0,67,0.00,,,0.08,,2013-02-11 19:42:00,
2013-02-11 14:51:00,36.0,26.0,29.91,West,265,7.0,23.0,66,0.00,,,0.08,,2013-02-11 19:51:00,
2013-02-11 15:01:00,36.0,26.0,29.91,West,272,9.0,17.0,66,0.00,,,0.08,,2013-02-11 20:01:00,
2013-02-11 15:11:00,36.0,25.0,29.92,WNW,302,8.0,20.0,65,0.00,,,0.08,,2013-02-11 20:11:00,
2013-02-11 15:21:00,36.0,25.0,29.92,WNW,302,8.0,20.0,65,0.00,,,0.08,,2013-02-11 20:21:00,
2013-02-11 15:32:00,36.0,25.0,29.93,West,269,7.0,21.0,65,0.00,,,0.06,,2013-02-11 20:32:00,
2013-02-11 15:42:00,36.0,25.0,29.94,West,274,8.0,22.0,65,0.00,,,0.06,,2013-02-11 20:42:00,
2013-02-11 15:52:00,36.0,25.0,29.94,West,274,8.0,22.0,65,0.00,,,0.06,,2013-02-11 20:52:00,
2013-02-11 16:02:00,36.0,26.0,29.94,West,268,7.0,17.0,66,0.00,,,0.06,,2013-02-11 21:02:00,
2013-02-11 16:11:00,36.0,26.0,29.94,WNW,286,7.0,16.0,66,0.00,,,0.06,,2013-02-11 21:11:00,
2013-02-11 16:22:00,36.0,26.0,29.94,WNW,286,7.0,16.0,66,0.00,,,0.06,,2013-02-11 21:22:00,
2013-02-11 16:32:00,36.0,26.0,29.95,West,260,5.0,15.0,66,0.00,,,0.03,,2013-02-11 21:32:00,
2013-02-11 16:42:00,36.0,26.0,29.95,West,260,5.0,15.0,66,0.00,,,0.03,,2013-02-11 21:42:00,
2013-02-11 16:52:00,36.0,26.0,29.95,West,267,8.0,16.0,67,0.00,,,0.03,,2013-02-11 21:52:00,
2013-02-11 17:02:00,36.0,26.0,29.95,West,261,7.0,14.0,67,0.00,,,0.03,,2013-02-11 22:02:00,
2013-02-11 17:11:00,37.0,27.0,29.95,West,268,6.0,16.0,68,0.00,,,0.03,,2013-02-11 22:11:00,
2013-02-11 17:22:00,37.0,27.0,29.95,West,268,6.0,16.0,68,0.00,,,0.03,,2013-02-11 22:22:00,
2013-02-11 17:32:00,37.0,27.0,29.95,West,277,4.0,13.0,68,0.00,,,0.02,,2013-02-11 22:32:00,
2013-02-11 17:42:00,37.0,27.0,29.95,West,277,4.0,13.0,68,0.00,,,0.02,,2013-02-11 22:42:00,
2013-02-11 17:52:00,37.0,28.0,29.96,West,260,6.0,12.0,69,0.00,,,0.02,,2013-02-11 22:52:00,
2013-02-11 18:02:00,37.0,28.0,29.96,West,260,6.0,12.0,69,0.00,,,0.02,,2013-02-11 23:02:00,
2013-02-11 18:11:00,37.0,28.0,29.96,West,260,6.0,12.0,69,0.00,,,0.02,,2013-02-11 23:11:00,
2013-02-11 18:21:00,37.0,28.0,29.96,West,265,4.0,11.0,71,0.00,,,0.02,,2013-02-11 23:21:00,
2013-02-11 18:32:00,37.0,28.0,29.96,West,276,4.0,12.0,70,0.00,,,0.02,,2013-02-11 23:32:00,
2013-02-11 18:42:00,37.0,28.0,29.96,West,276,4.0,12.0,70,0.00,,,0.02,,2013-02-11 23:42:00,
2013-02-11 18:52:00,37.0,28.0,29.97,WSW,257,4.0,12.0,69,0.00,,,0.02,,2013-02-11 23:52:00,
2013-02-11 19:02:00,37.0,28.0,29.98,West,270,3.0,9.0,70,0.00,,,0.02,,2013-02-12 00:02:00,
2013-02-11 19:11:00,37.0,28.0,29.98,West,270,3.0,9.0,70,0.00,,,0.02,,2013-02-12 00:11:00,
2013-02-11 19:22:00,36.0,27.0,29.98,WSW,252,4.0,9.0,70,0.00,,,0.02,,2013-02-12 00:22:00,
2013-02-11 19:32:00,36.0,28.0,29.98,WSW,257,2.0,10.0,72,0.00,,,0.02,,2013-02-12 00:32:00,
2013-02-11 19:42:00,36.0,28.0,29.98,WSW,257,2.0,10.0,72,0.00,,,0.02,,2013-02-12 00:42:00,
2013-02-11 19:52:00,36.0,28.0,29.99,WSW,238,3.0,8.0,72,0.00,,,0.02,,2013-02-12 00:52:00,
2013-02-11 20:02:00,36.0,28.0,29.99,West,267,2.0,6.0,73,0.00,,,0.02,,2013-02-12 01:02:00,
2013-02-11 20:11:00,36.0,28.0,29.99,West,267,2.0,6.0,73,0.00,,,0.02,,2013-02-12 01:11:00,
2013-02-11 20:21:00,36.0,28.0,30.00,NNW,341,3.0,9.0,73,0.00,,,0.02,,2013-02-12 01:21:00,
2013-02-11 20:32:00,36.0,28.0,30.01,WSW,241,4.0,9.0,72,0.00,,,0.02,,2013-02-12 01:32:00,
2013-02-11 20:42:00,36.0,28.0,30.01,WSW,241,4.0,9.0,72,0.00,,,0.02,,2013-02-12 01:42:00,
2013-02-11 20:51:00,36.0,28.0,30.01,WSW,241,4.0,9.0,72,0.00,,,0.02,,2013-02-12 01:51:00,
2013-02-11 21:01:00,35.0,27.0,30.01,WNW,284,2.0,8.0,73,0.00,,,0.02,,2013-02-12 02:01:00,
2013-02-11 21:12:00,35.0,27.0,30.01,WNW,284,2.0,8.0,73,0.00,,,0.02,,2013-02-12 02:12:00,
2013-02-11 21:21:00,35.0,27.0,30.01,WNW,284,2.0,8.0,73,0.00,,,0.02,,2013-02-12 02:21:00,
2013-02-11 21:32:00,34.0,27.0,30.02,West,279,0.0,5.0,75,0.00,,,0.01,,2013-02-12 02:32:00,
2013-02-11 21:42:00,34.0,27.0,30.02,West,279,0.0,5.0,75,0.00,,,0.01,,2013-02-12 02:42:00,
2013-02-11 21:52:00,33.0,27.0,30.03,NNW,329,1.0,4.0,77,0.00,,,0.01,,2013-02-12 02:52:00,
2013-02-11 22:02:00,32.0,26.0,30.03,NW,317,0.0,3.0,79,0.00,,,0.01,,2013-02-12 03:02:00,
2013-02-11 22:11:00,32.0,26.0,30.03,NW,317,0.0,3.0,79,0.00,,,0.01,,2013-02-12 03:11:00,
2013-02-11 22:21:00,32.0,26.0,30.03,NW,315,1.0,4.0,79,0.00,,,0.01,,2013-02-12 03:21:00,
2013-02-11 22:32:00,31.0,26.0,30.03,WSW,257,1.0,3.0,80,0.00,,,0.00,,2013-02-12 03:32:00,
2013-02-11 22:42:00,31.0,26.0,30.03,WSW,257,1.0,3.0,80,0.00,,,0.00,,2013-02-12 03:42:00,
2013-02-11 22:51:00,31.0,26.0,30.03,West,259,0.0,3.0,82,0.00,,,0.00,,2013-02-12 03:51:00,
2013-02-11 23:01:00,31.0,26.0,30.03,WSW,242,3.0,7.0,82,0.00,,,0.00,,2013-02-12 04:01:00,
2013-02-11 23:11:00,31.0,26.0,30.03,WSW,242,3.0,7.0,82,0.00,,,0.00,,2013-02-12 04:11:00,
2013-02-11 23:21:00,31.0,26.0,30.04,WNW,282,1.0,7.0,81,0.00,,,0.00,,2013-02-12 04:21:00,
2013-02-11 23:31:00,31.0,26.0,30.04,West,269,2.0,6.0,81,0.00,,,0.00,,2013-02-12 04:31:00,
2013-02-11 23:42:00,31.0,26.0,30.04,West,269,2.0,6.0,81,0.00,,,0.00,,2013-02-12 04:42:00,
2013-02-11 23:51:00,31.0,26.0,30.04,West,274,1.0,7.0,80,0.00,,,0.00,,2013-02-12 04:51:00,